This demonstration page uses our WeatherBlox Daily Observations layout. Learn more.

Left ArrowRight Arrow

38.20091, -84.87328

Hourly Observations for January 19, 2016

Temp ( °F °C ) Dew Point ( °F °C ) Humidity (%) Winds ( mph kmh ) Pressure ( in mb ) Visibility ( mi km ) Precip ( " mm )
12:53 am 00:53 Cloudy 11 -11.7 3 -16.1 70 70 Calm 30.40 1030 10 16 0.00 0.00
1:53 am 01:53 Cloudy with Light Snow 12 -11.1 2 -16.7 64 64 WNW 8 13 30.40 1030 9 14 0.00 0.03
2:51 am 02:51 Cloudy with Light Snow 10 -12 3 -16 72 72 NW 7 11 30.45 1031 4 6 0.00 0.03
2:53 am 02:53 Cloudy with Light Snow 11 -11.7 4 -15.6 73 73 NNW 6 9 30.41 1030 5 8 0.00 0.03
3:53 am 03:53 Cloudy 11 -11.7 1 -17.2 64 64 NNW 6 9 30.42 1030 10 16 0.00 0.03
4:53 am 04:53 Cloudy 10 -12.2 1 -17.2 67 67 VRB 3 6 30.45 1031 10 16 0.00 0.00
5:53 am 05:53 Cloudy 10 -12.2 0 -17.8 63 63 VRB 6 9 30.47 1032 10 16 0.00 0.00
6:53 am 06:53 Cloudy 10 -12.2 1 -17.2 67 67 undefined N/A 30.50 1033 10 16 0.00 0.00
7:35 am 07:35 Partly Cloudy 9 -12.8 -1 -18.3 64 64 NW 6 9 30.53 1034 10 16 0.00 0.00
7:46 am 07:46 Mostly Cloudy 9 -12.8 -1 -18.3 64 64 WNW 3 6 30.53 1034 10 16 0.00 0.00
7:53 am 07:53 Mostly Cloudy 9 -12.8 0 -17.8 66 66 Calm 30.53 1034 10 16 0.00 0.00
8:53 am 08:53 Cloudy 10 -12.2 1 -17.2 67 67 Calm 30.54 1034 10 16 0.00 0.00
9:53 am 09:53 Mostly Sunny 12 -11.1 0 -17.8 58 58 N 5 7 30.55 1035 10 16 0.00 0.00
10:53 am 10:53 Sunny 14 -10 0 -17.8 53 53 E 3 6 30.58 1036 10 16 0.00 0.00
11:53 am 11:53 Mostly Sunny 16 -8.9 2 -16.7 54 54 VRB 3 6 30.57 1035 10 16 0.00 0.00
12:53 pm 12:53 Sunny 17 -8.3 1 -17.2 49 49 SSE 5 7 30.56 1035 10 16 0.00 0.00
1:53 pm 13:53 Sunny 20 -6.7 2 -16.7 45 45 Calm 30.53 1034 10 16 0.00 0.00
2:53 pm 14:53 Sunny 21 -6.1 1 -17.2 41 41 E 6 9 30.51 1033 10 16 0.00 0.00
3:53 pm 15:53 Sunny 21 -6.1 1 -17.2 41 41 S 5 7 30.49 1033 10 16 0.00 0.00
4:53 pm 16:53 Sunny 21 -6.1 1 -17.2 41 41 ENE 3 6 30.49 1032 10 16 0.00 0.00
5:53 pm 17:53 Clear 19 -7.2 2 -16.7 47 47 E 7 11 30.48 1032 10 16 0.00 0.00
6:53 pm 18:53 Clear 18 -7.8 2 -16.7 49 49 ESE 3 6 30.49 1033 10 16 0.00 0.00
7:53 pm 19:53 Clear 17 -8.3 5 -15 59 59 Calm 30.50 1033 10 16 0.00 0.00
8:53 pm 20:53 Clear 16 -8.9 4 -15.6 59 59 E 6 9 30.47 1032 10 16 0.00 0.00
9:53 pm 21:53 Clear 16 -8.9 5 -15 62 62 ESE 6 9 30.46 1031 10 16 0.00 0.00
10:53 pm 22:53 Clear 17 -8.3 5 -15 59 59 E 8 13 30.43 1030 10 16 0.00 0.00
11:53 pm 23:53 Clear 17 -8.3 5 -15 59 59 E 8 13 30.40 1029 10 16 0.00 0.00

Powered by AerisWeather